GFSWCAN_sfc_thetae_021.txt.gz
Theta_e
299 299 299 299 300 300 300 300 299 300 300 300 299 298 298 299 300 296 294 294 289 283 281 282 283 278 276 275 270 270 273 269 271 269 265 264 258 265 262 268 268 265 258 254 253 255 260 272 273 269 273 277 275 275
299 299 299 299 299 300 299 299 299 299 300 300 300 299 298 298 298 298 290 294 294 286 283 284 286 287 285 283 279 275 275 269 278 267 266 264 259 259 263 262 273 264 268 264 265 264 274 275 275 278 279 276 277 276
297 298 299 299 299 299 300 299 299 299 299 299 299 299 299 299 299 297 289 290 291 285 284 284 283 286 287 286 287 278 274 281 278 280 274 272 268 266 261 262 268 272 273 270 271 274 274 277 279 279 279 278 279 278
296 296 297 298 298 298 298 299 299 299 299 299 298 299 298 298 298 297 290 292 290 285 279 280 282 282 286 288 286 286 284 282 283 281 277 273 266 276 271 273 271 274 272 270 271 275 276 277 278 278 279 278 277 276
295 296 296 296 297 297 298 298 298 298 298 298 298 298 298 297 297 294 291 290 293 285 278 278 279 282 284 285 284 284 283 282 281 278 276 274 277 276 275 275 272 276 274 271 270 276 276 276 278 277 276 273 272 271
295 295 295 295 296 296 297 297 297 297 297 297 298 298 297 297 297 289 284 288 292 290 282 275 278 277 280 281 282 282 282 282 282 279 277 276 279 277 272 270 276 277 278 279 276 279 278 278 272 272 271 270 269 268
294 294 295 295 295 296 296 296 296 296 296 297 297 297 297 297 292 285 282 284 292 291 281 276 274 275 277 279 275 276 281 282 280 279 277 277 277 278 273 270 276 277 278 278 274 273 274 270 270 269 268 267 267 265
293 293 294 294 294 295 295 295 295 296 296 296 296 297 297 297 295 287 290 293 291 286 283 274 267 265 272 270 272 275 275 278 279 278 271 273 275 276 270 275 277 278 275 271 268 268 268 267 267 266 265 264 262 262
291 292 292 292 293 293 294 294 294 295 295 295 296 296 293 290 284 284 294 294 291 284 276 274 268 263 271 269 272 272 275 272 276 273 272 273 265 268 270 274 275 271 269 266 265 265 264 263 262 262 261 260 259 260
290 290 291 291 292 292 293 293 294 294 294 295 292 285 281 284 292 292 286 282 282 282 280 274 263 263 272 273 273 271 274 272 269 270 273 270 270 276 271 264 264 263 262 263 262 260 258 257 259 259 259 259 259 259
289 289 290 290 290 291 292 292 293 293 293 287 283 280 283 291 283 280 276 275 269 270 275 272 270 265 272 269 269 274 271 271 266 263 264 255 259 271 262 260 261 261 260 258 258 258 258 257 257 257 257 257 257 256
289 288 289 289 290 290 291 291 292 289 286 286 284 285 285 281 277 273 271 270 266 264 261 266 267 272 270 275 272 271 269 268 265 255 259 254 265 260 259 259 259 258 256 255 256 256 256 257 256 255 255 253 254 254
288 289 288 289 289 290 290 291 292 290 289 284 281 277 276 276 269 268 263 258 257 256 261 264 267 271 273 275 272 271 267 263 257 258 258 261 259 257 256 257 256 254 253 253 253 253 254 254 254 253 252 252 250 249
288 289 288 289 289 289 289 290 291 290 283 277 274 269 270 268 269 261 262 262 266 264 263 265 264 269 270 270 271 266 264 262 258 259 260 261 255 253 253 253 250 250 249 250 249 250 251 251 251 251 250 250 248 248
288 288 289 288 289 289 289 289 290 287 281 275 273 267 268 258 253 250 248 258 258 264 267 265 264 271 267 267 268 264 258 254 257 258 258 251 251 251 250 248 246 246 247 246 246 245 248 248 248 247 247 246 245 246
287 286 283 288 289 289 289 288 286 284 279 276 270 266 258 257 254 251 249 255 256 265 263 265 262 266 266 266 264 259 256 256 259 250 250 251 248 247 246 245 245 244 243 244 244 243 245 244 244 245 245 246 247 249
285 275 286 286 287 287 287 282 278 269 268 267 262 257 260 263 264 261 259 258 264 263 259 258 260 261 265 262 256 257 257 255 247 248 248 246 247 246 243 241 242 241 242 242 240 240 240 242 240 240 244 248 252 256
277 279 286 286 282 279 269 269 268 266 260 256 262 257 256 255 255 255 252 260 263 260 260 262 265 260 259 256 254 253 248 248 247 247 244 242 240 239 238 240 241 240 240 241 240 241 239 242 244 248 252 256 256 257
281 280 284 286 281 274 268 264 264 260 253 253 254 254 254 253 255 255 254 257 258 257 260 262 264 263 259 251 249 244 244 243 245 244 243 240 239 239 240 240 241 241 241 241 242 244 246 249 253 254 255 256 255 256
280 281 280 280 278 270 263 259 262 257 255 253 250 250 251 250 252 251 251 253 256 258 262 262 263 249 250 249 245 244 244 246 244 241 242 243 242 239 242 242 245 242 243 244 245 252 253 253 254 254 254 255 255 254
275 274 277 271 266 263 259 257 254 252 252 247 250 251 246 248 247 248 251 252 258 258 259 250 248 244 240 237 238 239 242 243 243 244 244 243 243 241 242 243 244 244 246 248 250 252 253 252 253 253 253 253 254 254
265 273 268 270 264 256 256 256 256 257 253 248 249 251 249 247 246 249 249 254 253 248 246 244 240 238 239 241 240 237 238 238 237 242 246 247 248 247 246 247 247 249 251 251 251 251 252 252 253 253 252 252 253 253
266 265 262 262 261 258 253 257 252 250 254 250 251 254 250 249 249 250 251 242 240 238 235 236 235 234 238 236 236 237 238 242 244 244 245 247 247 248 250 251 251 250 251 252 252 252 252 253 252 252 251 251 250 249
261 253 251 251 254 252 252 251 254 251 248 249 252 251 249 248 246 247 246 239 240 235 237 237 236 240 240 240 240 240 240 239 241 243 246 248 251 251 251 252 252 252 252 252 252 252 252 251 252 251 251 249 248 246
255 245 247 244 246 248 248 250 251 252 249 247 249 247 244 238 243 242 243 243 239 237 237 234 236 238 240 238 239 241 242 246 248 248 250 251 251 251 252 253 252 253 252 251 251 251 250 250 250 250 249 248 247 247
243 240 242 236 242 245 241 243 241 242 241 243 241 239 237 241 245 246 243 242 238 239 239 242 244 244 245 244 245 246 248 249 250 251 251 252 252 252 251 251 251 252 252 251 250 249 249 250 248 248 249 249 249 247
242 240 239 239 241 240 241 239 238 240 241 242 240 241 242 245 244 246 242 239 241 241 244 248 248 247 246 244 245 249 251 253 252 253 253 252 253 253 253 251 251 253 252 251 249 248 248 248 248 248 248 249 248 247
238 236 241 239 238 234 237 236 238 240 240 239 239 243 245 246 245 246 244 244 243 243 243 244 247 247 246 248 253 253 252 252 251 252 252 252 252 252 252 253 253 257 252 251 251 250 248 248 248 248 248 248 249 246
238 234 236 239 238 240 238 239 239 238 238 237 242 243 244 243 242 241 245 244 242 246 247 246 246 247 250 252 253 253 251 250 250 250 249 249 250 252 250 250 251 251 250 250 253 256 252 251 250 250 249 249 249 242
239 235 241 239 242 243 240 235 235 232 232 234 233 239 240 242 240 236 240 242 244 246 247 248 249 251 251 251 250 250 247 247 249 248 246 246 248 247 244 245 247 247 245 243 248 249 251 249 246 243 245 244 244 244
233 232 237 237 239 236 233 229 228 229 230 230 228 234 238 238 241 242 243 244 245 244 246 247 246 246 248 244 242 242 246 243 240 244 245 246 247 247 247 247 248 246 244 244 245 244 245 243 242 243 243 244 245 246
231 232 236 240 238 233 229 230 229 232 230 234 235 231 239 242 245 248 246 244 244 245 248 247 246 247 244 244 241 241 247 247 248 249 249 249 250 250 250 250 247 245 244 245 245 244 244 244 245 246 247 246 246 245
236 234 233 236 239 238 234 234 235 236 234 235 235 231 231 235 243 244 242 238 242 241 242 243 244 243 244 244 248 251 252 251 251 255 256 255 255 254 253 251 248 246 246 247 247 247 246 246 247 247 246 246 246 246

GFSWCAN_sfc_thetae_024.txt.gz
Theta_e
300 300 300 300 300 300 300 300 300 300 300 300 301 300 299 300 300 298 293 295 289 284 285 285 286 282 282 281 278 277 278 276 277 274 272 271 269 271 270 272 272 271 270 268 266 265 265 278 276 273 278 281 281 280
298 298 299 300 300 300 300 300 300 300 300 300 300 301 300 299 300 299 291 295 295 286 286 289 289 290 288 287 284 279 281 275 280 276 274 274 269 268 271 267 275 269 274 271 270 272 279 279 279 282 283 281 281 281
296 297 297 298 298 299 300 300 300 300 300 300 300 300 300 300 299 298 294 294 291 285 284 284 285 288 290 289 291 281 280 283 281 284 279 276 271 273 270 269 273 276 278 273 274 277 278 280 282 282 283 282 283 283
296 296 296 297 297 297 298 299 299 299 300 300 300 300 299 299 300 299 292 293 291 285 281 282 286 286 291 290 289 288 287 285 285 283 279 276 273 277 274 275 274 277 276 274 274 277 278 280 281 282 282 283 280 277
295 295 296 296 296 296 297 297 298 298 299 299 299 299 299 299 299 298 294 294 294 286 280 281 283 285 288 289 287 287 286 284 282 279 278 276 279 277 278 277 275 278 276 274 272 278 278 279 282 282 279 279 275 273
294 295 295 295 296 296 296 296 297 298 298 298 298 298 299 298 298 291 284 291 294 292 282 277 285 281 284 286 286 285 285 284 283 280 279 280 282 278 274 272 278 280 281 281 278 281 281 282 281 277 275 273 271 270
293 294 294 294 295 295 296 296 296 296 297 297 297 298 298 298 295 285 285 289 294 292 282 277 277 279 279 282 283 283 284 283 282 280 279 279 279 279 276 272 278 279 280 280 281 280 278 278 276 272 271 269 268 266
292 292 293 293 294 294 295 295 295 296 296 296 296 297 297 297 296 290 290 294 293 286 284 276 275 274 276 276 277 281 280 281 281 279 279 277 279 278 272 277 279 279 279 279 279 272 272 271 270 267 266 265 264 264
291 291 292 292 293 293 294 294 294 295 295 296 296 296 294 291 285 286 294 294 291 286 278 277 273 271 274 275 277 277 279 275 280 276 277 277 275 271 275 276 277 278 276 274 268 267 267 267 266 264 263 262 262 262
290 290 290 291 291 292 292 292 293 294 294 295 292 285 282 285 294 293 288 284 282 282 281 275 274 273 276 275 274 275 276 274 270 273 276 273 272 277 276 274 268 266 266 267 265 264 263 264 263 262 261 261 261 261
290 290 290 290 290 290 291 291 292 293 293 287 284 283 286 293 285 282 277 277 277 275 278 275 275 271 275 272 272 276 273 274 268 271 271 269 267 274 267 263 264 263 263 261 262 261 261 260 260 260 260 259 259 258
289 289 289 289 289 290 290 291 291 289 286 287 286 286 286 281 278 274 273 275 273 271 269 271 272 277 275 278 274 274 270 271 267 265 267 264 270 265 263 261 260 260 259 258 258 258 258 258 258 257 257 256 255 256
288 288 289 289 289 289 290 290 291 291 290 285 282 278 278 277 271 269 267 266 267 265 267 269 270 274 275 276 274 272 269 267 265 265 264 267 266 259 258 257 256 256 255 255 255 255 255 255 255 255 254 254 253 252
288 288 289 289 289 289 289 290 290 290 285 278 275 271 271 270 271 268 269 268 271 270 267 269 268 271 273 272 273 268 268 265 263 260 263 269 261 256 256 255 254 253 252 253 253 253 253 253 253 253 252 252 250 250
288 288 288 288 289 289 289 289 290 287 283 276 275 268 270 265 262 259 257 267 266 271 271 268 268 271 268 270 270 266 262 262 263 263 267 260 255 254 253 253 252 251 252 251 251 250 250 251 250 250 250 249 249 248
287 285 283 288 289 289 289 288 286 284 281 276 270 267 260 265 263 259 261 263 261 270 270 270 267 266 266 267 265 263 264 261 266 264 257 253 251 251 251 251 251 250 249 249 249 248 249 247 248 250 248 248 249 250
284 277 286 287 288 286 287 283 277 269 269 267 264 261 260 261 263 260 262 264 267 270 268 266 263 264 267 265 263 263 262 268 259 253 252 253 253 252 250 248 248 247 247 247 247 247 247 248 244 246 250 254 253 255
277 280 285 286 281 278 270 269 269 267 261 258 263 258 258 256 257 257 260 264 268 268 267 267 267 262 261 260 261 263 255 250 250 252 252 250 248 247 247 249 247 246 247 246 246 246 246 247 251 253 252 255 256 258
279 281 285 285 278 269 266 264 264 260 255 255 256 257 256 256 257 257 258 260 260 261 265 266 265 262 263 261 259 253 251 253 252 250 250 246 246 246 245 245 246 247 247 248 250 252 252 250 252 254 255 256 256 257
281 280 280 279 278 269 263 260 263 259 255 254 255 254 254 253 254 254 255 257 260 263 264 262 262 257 256 253 251 252 252 250 250 249 250 249 248 245 248 249 251 249 250 250 251 252 253 254 255 255 255 255 255 255
274 274 276 270 265 262 260 258 255 255 254 253 253 253 251 253 252 252 253 254 260 260 258 251 250 247 246 246 246 248 249 249 251 252 251 250 248 249 249 249 248 250 251 251 251 252 253 253 254 254 254 254 254 255
267 273 268 271 263 256 255 257 255 256 253 251 252 253 251 249 247 249 249 255 254 250 250 250 249 248 248 247 244 243 244 242 241 247 247 249 250 250 250 251 251 251 251 252 253 253 253 254 254 254 253 253 253 254
266 266 263 262 259 258 254 256 253 250 251 251 252 253 251 250 250 251 254 250 248 244 242 243 241 237 241 238 237 239 238 243 247 247 247 248 248 249 251 252 252 252 252 253 254 253 253 254 254 253 253 253 252 252
260 253 252 252 251 248 249 248 252 248 246 249 252 250 249 249 248 251 251 245 247 241 241 239 239 243 243 242 244 243 243 242 245 245 245 248 250 251 253 253 254 254 254 254 253 253 253 253 253 253 253 252 252 251
255 245 247 246 246 247 246 246 251 253 249 242 246 246 244 241 248 246 246 245 242 241 241 237 239 241 245 243 243 243 240 246 248 248 248 249 251 253 253 254 254 255 255 253 253 253 253 253 252 252 252 251 251 251
243 239 242 237 243 246 242 246 246 247 248 248 245 241 241 246 249 248 244 244 241 241 241 243 244 243 246 247 248 247 248 247 248 250 252 253 253 253 253 253 253 254 254 254 253 252 252 252 251 251 251 251 251 251
242 240 239 238 241 243 241 238 239 242 241 243 240 242 242 245 245 246 244 241 243 242 242 245 248 249 248 247 246 246 248 251 252 253 254 254 255 255 254 253 253 255 255 253 252 251 251 251 251 251 250 251 251 251
238 236 240 239 238 234 238 236 238 240 240 239 239 243 245 245 246 245 244 244 243 244 243 245 247 248 247 248 248 251 253 253 252 253 253 253 253 254 253 254 254 258 253 253 253 252 251 251 251 251 251 250 251 252
237 234 235 239 237 239 238 239 239 237 238 236 242 243 244 243 242 242 247 245 241 243 244 247 247 245 248 249 250 250 251 252 253 251 250 251 252 253 252 252 252 252 253 253 255 257 254 252 252 251 251 251 251 249
239 235 241 239 241 241 239 236 236 233 234 236 236 241 243 243 243 240 242 241 244 244 244 245 247 250 249 250 250 251 249 248 249 250 248 249 251 249 248 250 251 251 250 249 250 251 253 252 249 246 248 249 248 248
233 232 238 238 240 236 233 230 228 229 230 230 227 234 238 239 242 243 244 244 245 246 248 248 249 250 251 251 248 245 248 244 240 245 247 249 250 250 250 250 250 249 248 247 247 247 247 247 246 245 246 246 246 247
234 232 236 240 239 233 229 229 228 231 230 234 237 235 242 243 248 249 248 246 247 247 249 249 250 251 250 250 245 241 246 245 249 251 251 252 252 252 252 252 250 248 247 247 247 247 246 245 247 247 248 248 247 247
239 238 240 242 243 244 240 238 240 240 238 238 237 232 232 237 245 247 245 241 243 243 246 246 247 247 248 247 248 250 252 252 253 256 257 257 256 255 254 253 251 249 248 248 249 249 247 247 248 248 248 248 248 248

GFSWCAN_sfc_thetae_030.txt.gz
Theta_e
299 299 300 301 301 301 301 301 301 301 301 302 301 301 301 302 301 298 294 297 289 283 284 286 286 282 281 281 276 274 275 274 274 269 268 269 265 270 267 271 271 267 263 262 261 258 261 276 275 271 276 280 279 279
298 298 299 299 300 300 300 301 301 301 301 301 301 301 301 301 301 300 292 296 296 286 285 289 290 290 288 287 282 277 278 274 278 272 272 272 265 267 267 260 275 265 271 265 269 268 277 278 278 280 280 277 279 279
297 297 298 298 298 299 299 299 300 300 300 301 301 301 301 301 301 299 293 294 292 285 285 285 283 289 292 290 290 279 279 283 281 284 278 277 272 271 264 266 270 274 276 272 272 275 276 279 280 281 281 280 280 280
297 297 297 297 297 298 298 297 298 298 299 300 300 300 301 301 301 300 293 294 291 286 280 281 289 287 291 291 289 289 286 286 284 284 279 277 274 278 273 275 273 275 275 273 273 276 278 279 280 280 281 281 280 280
296 297 297 297 297 297 297 297 297 297 298 298 299 299 300 300 301 299 297 295 294 286 280 278 282 285 289 290 288 288 286 283 283 280 279 275 277 278 279 277 275 278 276 273 272 278 277 278 280 280 279 279 279 278
296 296 296 297 297 297 296 296 296 296 297 297 297 298 299 300 300 294 286 294 295 293 284 277 284 281 285 287 286 285 286 284 283 281 279 280 281 278 274 273 278 279 280 280 278 281 280 280 281 280 279 278 277 275
295 295 295 296 296 296 295 295 295 296 296 296 297 297 298 299 296 287 285 290 296 294 283 278 278 281 282 283 282 281 283 283 283 281 279 279 280 280 276 272 278 279 279 280 281 280 277 279 278 276 276 273 271 270
294 294 294 294 294 294 294 294 294 295 295 296 296 296 297 297 296 290 293 295 295 286 284 277 276 271 277 279 278 283 281 282 282 279 275 277 277 277 273 277 279 279 280 280 280 279 277 274 273 271 271 269 266 267
294 293 293 293 293 293 293 293 294 294 294 295 295 296 293 289 286 287 296 296 293 287 278 278 273 271 274 274 277 279 281 274 278 275 276 275 273 271 274 277 278 279 279 279 272 270 269 269 270 268 267 265 264 266
292 291 291 290 291 291 292 292 293 293 294 294 291 285 282 286 295 295 289 285 284 283 282 277 275 270 276 274 275 273 276 271 270 273 276 273 272 278 279 279 278 276 273 272 267 265 263 263 266 265 263 264 264 265
290 290 290 290 290 291 291 292 292 292 292 287 283 282 287 293 288 284 280 279 280 276 279 276 278 270 275 270 273 278 271 270 265 266 269 264 263 276 278 278 269 269 267 265 265 265 264 263 265 264 263 263 262 261
290 290 290 290 290 291 291 291 291 289 286 286 286 287 286 283 281 277 275 275 277 273 274 272 273 280 276 279 275 275 272 272 267 264 266 260 271 274 269 266 265 265 263 260 260 261 261 263 261 260 260 259 257 256
289 289 289 290 290 290 290 290 290 290 290 286 283 280 278 279 273 272 268 268 266 270 272 269 273 277 276 278 275 273 270 268 268 267 262 264 269 263 260 259 257 257 257 256 256 256 257 257 256 254 252 251 250 249
287 288 288 289 289 290 290 290 290 288 285 278 275 270 273 271 273 270 268 268 272 271 272 275 273 273 276 273 275 269 270 266 264 260 259 265 267 262 258 256 255 255 256 256 253 253 253 253 253 251 251 249 247 246
287 287 288 288 289 289 289 290 290 286 282 275 276 269 269 268 263 261 261 267 267 273 276 273 272 275 272 272 273 267 264 263 261 261 266 265 258 257 255 253 253 254 253 253 252 250 251 250 249 247 246 245 244 244
287 286 284 287 287 288 289 288 285 284 281 277 275 271 265 265 261 261 261 265 266 273 273 274 272 270 269 271 267 265 263 258 262 263 259 255 251 252 252 251 252 252 249 249 248 248 248 246 245 244 242 243 244 244
284 280 284 286 286 284 286 283 280 277 276 270 265 261 268 270 266 261 263 266 269 272 267 269 268 267 271 268 266 264 261 262 258 256 255 254 252 250 249 249 247 246 245 246 245 244 244 243 242 242 243 245 245 246
276 281 286 286 283 279 271 270 273 271 265 263 263 258 260 259 261 263 265 267 268 272 273 270 271 267 266 265 264 263 258 254 255 254 252 248 247 248 248 247 244 245 245 246 244 242 242 242 242 245 245 246 247 248
279 281 283 283 279 273 269 265 266 262 257 259 260 259 259 258 259 260 261 264 265 266 267 270 268 267 266 263 259 256 255 256 254 254 250 247 249 248 247 247 248 248 248 245 243 245 245 244 246 246 247 247 248 249
281 280 280 278 277 267 262 262 266 263 259 258 260 258 258 256 258 258 258 261 262 266 267 266 261 255 255 252 252 254 255 256 255 252 249 248 247 246 250 251 252 251 247 244 244 247 246 247 247 247 247 248 247 249
276 276 276 269 265 263 259 259 256 257 257 255 256 258 254 257 256 255 257 257 261 261 258 252 251 251 251 251 251 253 252 253 251 251 251 250 250 252 250 250 250 247 246 245 246 246 247 246 246 247 246 247 249 253
270 275 270 271 263 259 258 259 258 257 254 251 252 255 252 251 250 251 252 257 255 248 249 250 251 252 252 249 248 248 248 249 249 251 252 250 247 249 248 246 245 245 245 246 246 246 247 250 252 251 250 251 254 255
268 269 264 263 261 258 254 256 254 251 250 250 249 250 249 248 247 252 254 249 246 244 244 245 246 246 249 248 247 247 246 248 249 245 245 246 244 244 247 245 245 245 245 248 251 252 252 255 254 254 254 255 255 254
262 255 254 254 255 252 252 250 253 252 251 251 250 248 248 251 251 254 253 248 244 244 246 244 246 247 248 248 249 248 245 244 245 244 242 243 244 244 244 245 245 246 248 249 250 252 252 253 255 254 254 254 253 253
258 248 249 248 252 252 252 253 253 255 251 248 252 252 249 248 251 251 248 246 249 250 249 248 249 250 250 248 247 245 241 242 243 243 243 243 244 245 247 247 248 250 252 251 251 252 252 253 253 254 253 253 252 252
245 241 242 241 243 245 246 251 250 250 251 251 248 248 245 249 250 245 245 248 248 248 247 246 246 245 244 243 243 243 244 241 243 245 246 245 246 246 248 251 252 253 254 253 253 253 253 254 253 252 252 253 253 253
243 240 241 241 241 242 242 243 246 250 249 249 249 250 249 247 244 244 246 245 244 243 242 242 242 243 244 244 244 243 244 245 247 248 248 249 250 250 251 250 250 252 253 254 254 254 253 253 253 252 252 253 253 253
239 239 239 240 240 239 240 241 241 241 242 242 241 243 245 244 245 244 243 243 241 241 242 242 243 245 246 248 248 248 248 248 249 249 250 251 250 250 249 250 251 259 253 254 254 254 253 253 252 252 252 252 253 253
238 238 238 239 239 240 239 239 239 240 241 240 241 243 243 243 241 242 246 245 246 247 246 245 246 247 250 253 253 253 253 253 252 251 250 249 248 250 249 249 249 250 251 252 256 258 254 253 253 253 253 253 253 252
242 240 244 246 246 243 240 238 239 237 240 240 240 243 245 248 249 247 247 247 248 246 246 247 249 252 253 254 254 254 253 252 251 251 248 247 247 246 247 250 251 251 251 250 251 251 254 251 249 246 247 248 246 248
238 236 240 242 243 241 238 237 237 237 238 239 238 241 245 245 248 249 249 249 248 249 250 252 253 253 253 253 253 253 252 250 248 249 248 249 250 251 251 252 252 251 249 249 248 247 248 246 244 245 245 245 246 247
241 241 242 243 242 236 232 233 233 234 234 239 242 242 244 246 249 250 251 250 251 251 252 252 252 251 252 252 252 252 252 251 252 253 252 252 253 254 255 255 254 252 250 250 249 249 249 248 248 247 247 247 247 246
242 242 242 244 245 245 243 242 245 244 244 243 244 243 243 245 248 250 253 250 249 248 249 249 250 251 251 251 252 252 253 253 253 258 258 258 257 258 257 256 255 255 253 251 250 250 248 247 247 247 246 246 247 247

GFSWCAN_sfc_thetae_033.txt.gz
Theta_e
299 300 300 301 301 300 300 301 301 301 301 302 302 301 301 301 300 296 291 293 286 277 281 284 284 281 279 279 274 273 274 273 272 266 265 266 260 268 264 269 269 267 263 260 257 256 261 275 275 271 275 279 278 278
299 299 299 300 300 301 301 301 301 301 301 301 302 302 302 301 301 300 291 295 294 282 278 288 287 288 286 285 279 273 276 270 276 268 267 266 262 260 263 261 274 266 270 265 268 267 276 276 277 279 279 276 278 278
298 298 298 298 299 299 299 300 301 301 301 301 301 301 302 301 301 299 293 293 291 285 285 283 281 288 290 289 287 276 275 281 279 279 271 269 264 267 262 263 268 273 274 271 270 274 275 277 278 279 279 279 280 279
297 297 297 297 298 298 298 299 299 299 299 300 300 301 301 301 301 300 293 294 290 286 279 278 286 284 289 289 288 286 284 284 283 281 275 272 268 276 269 274 273 274 274 272 272 276 277 277 278 279 279 279 279 279
297 297 297 297 297 298 297 298 298 298 298 298 299 299 300 300 301 299 296 295 295 286 279 272 279 284 287 288 287 286 284 281 277 278 278 273 275 273 272 276 275 278 275 273 271 277 276 278 279 279 278 278 279 278
296 296 297 296 297 297 297 297 297 297 297 297 297 298 299 299 300 294 286 294 295 293 283 277 280 279 284 286 285 284 285 281 282 280 279 277 280 278 273 268 278 279 280 280 277 280 279 281 280 279 278 278 278 277
296 296 296 296 296 296 297 297 297 296 296 296 296 297 297 298 294 287 285 287 296 293 284 278 277 276 281 281 280 279 282 282 281 281 279 277 277 281 275 271 278 279 279 280 280 280 278 279 278 278 278 274 272 271
296 296 296 295 295 296 296 295 295 295 295 295 296 296 297 297 295 290 293 296 296 287 284 277 275 271 276 280 279 282 281 282 282 280 272 277 278 279 273 277 279 280 280 279 279 280 280 276 274 272 271 269 266 268
294 295 295 295 295 295 294 294 294 294 294 295 295 296 291 289 284 284 296 296 293 287 278 277 272 266 277 278 279 279 281 276 280 276 274 277 272 271 274 277 277 278 278 279 274 271 270 271 271 269 267 265 265 266
294 294 294 293 293 293 293 293 293 294 294 294 290 285 282 286 293 294 289 284 284 283 283 276 268 270 275 273 270 273 277 274 271 273 275 274 272 278 279 278 277 276 276 273 267 265 263 264 268 266 264 264 264 265
293 293 292 292 290 290 290 291 292 293 292 286 283 282 283 292 287 284 279 278 279 276 279 276 275 271 272 270 270 273 271 272 268 269 271 265 266 275 279 278 277 274 271 266 267 266 265 265 265 264 263 262 262 260
290 290 290 290 290 290 291 291 292 289 283 286 286 287 286 283 281 277 275 270 274 269 267 272 270 274 275 276 272 274 271 271 267 264 266 263 272 274 274 273 267 267 265 261 261 262 262 263 262 261 259 255 255 255
289 289 289 289 290 290 291 291 291 291 290 286 281 278 278 276 272 271 266 270 262 271 271 267 269 274 277 277 274 273 270 268 270 269 264 265 267 270 266 262 257 257 257 257 257 257 258 256 256 255 253 250 249 248
286 287 288 289 289 290 290 291 291 289 283 277 275 270 271 268 272 272 264 269 270 268 270 268 270 270 272 273 274 270 271 268 265 264 260 262 268 268 262 259 256 254 255 256 254 254 254 254 253 252 251 248 246 246
287 287 287 287 288 289 290 290 290 286 280 274 272 269 267 264 261 259 260 264 267 268 274 269 268 274 269 271 273 267 264 263 264 261 262 265 266 263 260 257 254 253 253 252 249 250 252 252 251 248 245 243 243 242
286 286 282 287 287 288 288 288 285 283 280 276 273 265 269 265 258 258 257 263 267 276 275 274 272 270 269 271 267 264 263 260 262 259 256 256 257 257 256 254 250 251 250 249 248 247 247 246 246 246 241 241 241 241
283 276 285 286 286 284 285 278 279 278 275 272 266 251 259 267 269 266 266 264 269 271 270 271 267 265 270 268 266 268 263 261 255 254 256 257 257 255 253 252 249 249 247 246 243 243 242 240 239 242 245 245 242 242
271 278 286 285 281 277 268 268 273 270 264 262 262 254 252 253 258 258 262 266 271 272 271 269 270 267 266 264 260 260 254 252 254 255 254 253 252 251 250 248 247 247 244 243 243 242 244 246 249 250 243 243 243 245
276 277 282 283 279 273 268 265 264 262 258 256 259 260 257 254 256 258 260 263 264 266 268 269 268 267 266 258 259 259 259 258 256 253 251 250 250 249 249 248 248 246 244 243 244 246 248 250 250 247 245 244 246 245
281 280 280 277 275 266 261 262 266 262 257 257 260 258 258 255 254 253 255 259 262 265 265 265 260 255 256 254 253 254 255 255 253 252 250 250 250 249 249 249 249 247 248 247 246 247 245 245 245 244 244 245 245 245
274 274 275 267 263 259 256 255 255 258 258 256 257 259 257 259 256 254 256 255 259 253 255 253 251 251 251 251 252 253 252 253 253 254 253 249 249 249 249 251 251 249 250 247 245 244 244 244 245 244 244 245 245 246
268 275 268 270 261 256 255 255 254 255 255 251 254 254 251 250 250 251 252 256 250 246 245 247 249 251 251 249 248 248 250 252 252 252 253 253 251 250 249 247 246 244 243 242 242 243 243 244 245 247 248 248 253 253
268 268 263 261 258 255 252 255 252 255 253 252 250 250 249 247 248 252 252 250 248 246 245 246 246 247 248 249 250 250 249 252 250 249 247 245 243 242 244 243 242 243 243 244 243 244 246 251 250 249 251 253 253 253
262 255 254 253 252 251 252 252 255 254 253 250 251 248 247 244 249 252 247 245 246 247 247 247 248 250 250 250 250 249 246 244 245 244 241 246 245 243 241 242 241 242 244 244 245 246 247 248 251 249 250 252 252 252
257 247 249 246 250 250 252 252 253 253 249 248 250 248 245 243 248 248 247 246 249 248 249 249 249 250 249 249 248 246 243 242 244 246 245 240 240 242 243 242 243 245 246 248 248 248 247 246 248 250 251 252 251 252
246 241 242 237 243 245 247 249 249 248 250 249 247 248 247 250 250 245 244 244 246 246 246 246 246 247 247 244 244 244 245 241 240 243 243 241 243 244 244 247 247 250 249 248 248 248 248 249 250 250 252 253 254 253
244 240 240 239 239 241 242 244 247 249 248 247 246 249 251 249 246 244 244 245 244 244 243 243 242 243 244 244 243 242 240 239 244 246 247 247 248 248 250 249 248 250 248 248 249 249 249 250 252 252 253 253 253 253
238 238 239 240 239 237 239 240 241 244 245 244 245 246 247 245 244 247 245 245 244 244 243 241 242 243 242 244 246 248 248 248 251 251 249 250 247 247 248 249 249 258 250 249 249 250 250 251 252 252 253 252 253 253
238 239 240 242 238 240 239 240 240 241 241 240 243 245 244 245 245 245 248 248 248 247 246 248 250 251 252 253 254 254 253 253 253 250 247 246 247 249 246 245 245 246 247 247 254 257 253 252 251 251 251 252 252 250
240 238 244 247 246 244 242 240 241 240 241 241 241 244 246 248 249 249 248 249 248 248 249 249 251 253 253 253 252 252 251 251 251 251 248 248 249 251 249 249 249 249 248 247 251 252 255 250 248 245 245 246 245 246
238 238 240 243 243 241 239 237 238 239 240 241 241 243 246 246 249 251 252 250 250 251 252 253 252 252 251 251 250 251 252 252 251 251 250 251 251 250 250 250 251 249 247 246 247 246 248 247 246 246 246 246 245 246
242 240 243 245 242 237 234 235 234 237 240 241 242 243 245 246 248 250 252 252 251 250 251 251 250 250 251 252 252 252 253 252 253 254 253 253 252 251 252 254 254 253 251 250 249 248 247 247 248 248 248 247 247 247
242 241 242 243 244 244 243 242 245 245 246 246 245 245 245 248 247 250 254 252 250 249 250 250 251 252 252 252 252 252 253 253 253 257 257 257 256 256 255 254 253 252 251 251 251 250 249 248 247 247 246 246 246 246